Regional Weather Roundup
Issued by NWS San Diego, CA

Home | Current Version | Previous Version | Text Only | Print | Product List | Glossary On
Versions: 1 2 3 4 5 6 7 8 9 10 11 12 13 14 15 16 17 18 19 20 21 22 23 24 25 26 27 28 29 30 31 32 33 34 35 36 37 38 39 40 41 42 43 44 45 46 47 48 49 50
000
ASUS46 KSGX 201503
RWRSGX

SAN DIEGO HOURLY WEATHER ROUNDUP
NATIONAL WEATHER SERVICE SAN DIEGO CA
800 AM PDT SUN APR 20 2014

NOTE: "FAIR" INDICATES FEW OR NO CLOUDS BELOW 12,000 FEET WITH NO
SIGNIFICANT WEATHER AND/OR OBSTRUCTIONS TO VISIBILITY.

CAZ042-043-060-061-PZZ750-775-201600-

GREATER SAN DIEGO AREA

CITY           SKY/WX    TMP DP  RH WIND       PRES   REMARKS
LINDBERGH FLD  CLOUDY    62  55  77 NE3       30.06S
CHULA VISTA      N/A     61  58  89 CALM      29.99S
IMPERIAL BEACH CLOUDY    61  56  83 NE3       30.06S
BROWN FIELD    CLOUDY    58  55  90 CALM      30.05S FOG
MIRAMAR MCAS   PTSUNNY   59  54  83 SE3       30.04S
MONTGOMERY FLD CLOUDY    58  55  90 CALM      30.05S FOG

$$

NORTH SAN DIEGO COUNTY

CITY           SKY/WX    TMP DP  RH WIND       PRES   REMARKS
CAMP PENDLETON MOSUNNY   57  53  86 CALM      30.05S
RED BEACH      FAIR      61  55  81 E3        30.05S HAZE
OCEANSIDE AP   MOSUNNY   57  52  83 E5        30.05R
VISTA            N/A     54  51  90 CALM      30.04R
CARLSBAD       SUNNY     59  54  83 CALM      30.04S
DEL MAR          N/A     58  56  92 CALM      30.07R
FALLBROOK        N/A     56  56 100 CALM      30.05R
SAN MARCOS       N/A     57  52  85 CALM      30.03S
POWAY            N/A     59  55  86 CALM      30.07R
R. PENASQUITOS   N/A     57  55  93 CALM      30.06R

$$

EAST SAN DIEGO COUNTY

CITY           SKY/WX    TMP DP  RH WIND       PRES   REMARKS
RAMONA         SUNNY     56  51  84 CALM      30.05S
SANTEE LAKES     N/A     57  54  90 CALM      30.08R
GILLESPIE FLD  FAIR      57  52  82 CALM      30.07S
LA MESA          N/A     59  56  90 CALM      30.00R
JAMUL            N/A     53  52  95 CALM      30.04S
DESCANSO N       N/A     63  44  51 CALM      29.95S
MT. LAGUNA OBS   N/A     55  32  41 CALM      29.76
CAMPO            N/A     55  46  71 NE3       30.05R

$$

ORANGE COUNTY AND THE LOS ANGELES BASIN

CITY           SKY/WX    TMP DP  RH WIND       PRES   REMARKS
JOHN WAYNE AP  MOSUNNY   61  54  77 CALM      30.06R
LAGUNA BEACH     N/A     59  56  89 SE1       30.03R
LAKE FOREST FR   N/A     55  50  84 CALM      29.96R
SANTA ANA        N/A     58  55  89 CALM      30.01R
HUNTINGTON BCH   N/A     58  57  96 CALM      30.06R
LOS ALAMITOS   MOSUNNY   60  56  84 CALM      30.06R
FULLERTON      SUNNY     61  55  81 CALM      30.05R
LONG BEACH     MOSUNNY   60  55  83 CALM      30.06R
L.A. AP        MOSUNNY   61  56  83 E3        30.06R
L.A. DOWNTOWN  MOSUNNY   63  55  75 CALM      30.05R

$$

THE INLAND EMPIRE

CITY           SKY/WX    TMP DP  RH WIND       PRES   REMARKS
CORONA         SUNNY     58  52  80 CALM      30.06S
CHINO          MOSUNNY   58  54  86 CALM      30.07R FOG
ONTARIO        MOSUNNY   61  52  72 CALM      30.06R
SAN BERNARDINO SUNNY     55  48  76 CALM      30.07R
RIVERSIDE AP   SUNNY     59  52  77 CALM      30.06R
RIV CYN CREST    N/A     58  58  99 CALM      30.04R
MORENO VALLEY    N/A     60  57  91 CALM      28.18R
MARCH ARB      SUNNY     58  51  77 NE1       30.07R
HORSETHIEF CYN   N/A     58  51  76 SE1       30.06R
PERRIS           N/A     55  54  96 CALM        N/A
MENIFEE          N/A     57  55  94 CALM      30.12R
HEMET EAST       N/A     59  43  54 CALM      30.04R
FRENCH VALLEY  NOT AVBL
TEMECULA         N/A     53  52  96 CALM      30.04R

$$

SAN BERNARDINO AND RIVERSIDE COUNTY MOUNTAINS

CITY           SKY/WX    TMP DP  RH WIND       PRES   REMARKS
BIG BEAR AP    SUNNY     43  36  75 W6        30.26R
BIG BEAR SHEA    N/A     41  31  67 S1        30.17F
ANGELUS OAKS     N/A     48  34  58 MISG      30.00R

$$

SOUTHERN DESERT INCLUDING THE COACHELLA VALLEY

CITY           SKY/WX    TMP DP  RH WIND       PRES   REMARKS
PALM SPRINGS   SUNNY     74  47  38 NW7       30.01R
THOUSAND PALMS   N/A     72  47  40 SW3       29.97R
THERMAL        SUNNY     71  50  47 CALM      29.98R
BLYTHE         SUNNY     72  41  32 N3        30.00R
IMPERIAL AP    SUNNY     70  59  68 SE3       29.97R
EL CENTRO NAS  SUNNY     69  51  52 CALM      29.98R
YUMA AZ        SUNNY     74  41  30 E5        29.99R
MEXICALI       SUNNY     68  50  52 E5        29.99

$$

UPPER DESERT

CITY           SKY/WX    TMP DP  RH WIND       PRES   REMARKS
VICTORVILLE AP SUNNY     61  39  44 S7        30.10R
HESPERIA         N/A     59  42  54 W2        30.15R
GRAY BUTTE AP  NOT AVBL
PALMDALE       SUNNY     63  34  33 CALM      30.08R
LANCASTER      SUNNY     61  33  35 CALM      30.08R
EDWARDS AFB    SUNNY     61  28  28 SW10      30.06R
DAGGETT        SUNNY     65  34  31 W12       30.06R
29 PALMS N     SUNNY     69  39  33 NW6       30.13R
NEEDLES        SUNNY     76  38  25 CALM      30.00R

$$

REGIONAL REPORTS

CITY           SKY/WX    TMP DP  RH WIND       PRES   REMARKS
SANTA BARBARA  SUNNY     58  50  75 CALM      30.05R
SANDBERG       SUNNY     59  18  20 N21       30.15R
MT. WILSON       N/A     59  36  41 MISG        N/A
LAS VEGAS NV   MOSUNNY   71  35  26 SW5       30.00R
PHOENIX AZ     SUNNY     71  44  37 E8        30.03R
TIJUANA        CLOUDY    59  54  82 CALM      30.07R FOG

$$

OFFSHORE ISLANDS

CITY           SKY/WX    TMP DP  RH WIND       PRES   REMARKS
CATALINA ARPT  SUNNY     62  46  55 SW3       30.07R
SAN NICOLAS IS MOSUNNY   56  51  84 CALM      30.05R

$$

MARINE AND OFFSHORE BUOY REPORTS

STATION/POSITION SKY/WX   TEMP    WIND        PRES    SWELL
                          AIR SEA DIR/SP/G            HT/PER/DIR
                          (F)     (DEG/KT/KT) (MB)    (FT/S/D)
S CLEMENTE BASIN           59 62  240/  4/  6 1017.8R   5/140/16
SAN NICOLAS IS.               58                N/A     3/280/14
SO. S. ROSA ISLA           53 57  320/ 14/ 16 1017.2R   7/ 8
W. S. BARBARA CH           51 53  330/ 12/ 16 1017.1R   7/310/ 8
S. MONICA BASIN            59 60   80/  6/  8 1016.9R   5/260/ 9
S PEDRO CHANNEL               60                N/A     2/190/15
DANA POINT                    61                N/A     2/180/17
CMP PENDLETON NS              61                N/A     2/220/17
OCEANSIDE OFFSHR              62                N/A     2/200/17
TORREY PINES OTR              62                N/A     3/200/15
LA JOLLA 1                 59 62  180/  3/  4 1017.7R
MISSION BAY BUOY              61                N/A     3/280/14
SAN DIEGO BAY                 65              1017.8R
POINT LOMA SOUTH              62                N/A     3/190/17

$$




USA.gov is the U.S. government's official web portal to all federal, state and local government web resources and services.